* Astronomy

Members Login
Post Info TOPIC: SL-24 Debris re-entry


L

Posts: 131433
Date:
RE: SL-24 Debris re-entry
Permalink  
 


Update:
SL-24 rocket body debris re-entered the Earths atmosphere on the 12th July, 2012 @ 17:25 GMT ± 15 minutes.

Inclination: 97.40°
Revolution Number:  11574
Predicted Location:   23.1°N, 30.4°E



__________________


L

Posts: 131433
Date:
Permalink  
 

Update:
SL-24 rocket body debris is predicted to re-enter the Earths atmosphere on the 12th July, 2012 @ 17:30 GMT ± 7 hours.

SL-24 DEB
1 36607U 10030C   12194.22861148  .08454469  25112-5  16798-2 0  8803
2 36607 097.4017 223.3020 0012856 227.0029 134.8684 16.31311670115671
SL-24b.gif
Expand (28kb, 857 x 564)

Period:       89.13 minutes
Inclination: 97.40°
Apogee:     239 km
Perigee:     224 km 
Revolution Number:  11575
Predicted Location:   62.7°N, 16.7°E



__________________


L

Posts: 131433
Date:
Permalink  
 

Update:
SL-24 rocket body debris is predicted to re-enter the Earths atmosphere on the 12th July, 2012 @ 18:30 GMT ± 17 hours.

SL-24 DEB
1 36607U 10030C   12193.85967459  .04677816  24655-5  16065-2 0  8798
2 36607 097.4011 222.8690 0014140 226.7632 133.9311 16.25191981115611

Period:       89.13 minutes
Inclination: 97.40°
Apogee:     239 km
Perigee:     224 km 
Revolution Number:  11575
Predicted Location:   82.4°S, 124°E



__________________


L

Posts: 131433
Date:
Permalink  
 

Update:
SL-24 rocket body debris is predicted to re-enter the Earths atmosphere on the 12th July, 2012 @ 18:00 GMT ± 24 hours.

SL-24 DEB
1 36607U 10030C   12192.68579490  .02597582  14870-1  24664-2 0  8733
2 36607 097.4044 221.5416 0011380 219.2129 140.1878 16.15630596115426

Period:       89.53 minutes
Inclination: 97.40°
Apogee:     260 km
Perigee:     243 km 
Revolution Number:  11575
Predicted Location:   39.8°N, 212.6°E



__________________


L

Posts: 131433
Date:
Permalink  
 

Update:
Debris from a SL-24 rocket body is predicted to re-enter the Earths atmosphere on the 12th July, 2012 @ 17:00 GMT ± 48 hours.

SL-24 DEB
1 36607U 10030C   12191.69315411  .02181813  46317-2  25329-2 0  8685
2 36607 097.4056 220.4209 0012353 208.8195 151.7692 16.09877513115264

Period:       89.68 minutes
Inclination: 97.41°
Apogee:     267 km
Perigee:     250 km 
Revolution Number:  11584
Predicted Location:   76°S, 70.8°E



__________________


L

Posts: 131433
Date:
Permalink  
 

Debris from a SL-24 rocket body that was launched on the 21st June, 2010, from the Baikonur Cosmodrome in Kazakhstan, for the TanDEM-X satellite mission, is predicted to re-enter the Earths atmosphere on the 13th July, 2012 @ 07:00 GMT ± 48 hours.

SL-24 DEB
1 36607U 10030C   12191.13319521  .01453913  13855-2  18690-2 0  8664
2 36607 097.4065 219.7947 0012426 202.4020 157.6336 16.07421040115170

Period:       89.81 minutes
Inclination: 97.41°
Apogee:     274 km
Perigee:     257 km 
Revolution Number:  11584
Predicted Location:   62.1°N, 21.6°E



__________________
Page 1 of 1  sorted by
 
Quick Reply

Please log in to post quick replies.



Create your own FREE Forum
Report Abuse
Powered by ActiveBoard